Regional Weather Roundup
Issued by NWS

Home | Current Version | Previous Version | Text Only | Print | Product List | Glossary Off
Versions: 1 2 3 4 5 6 7 8 9 10 11 12 13 14 15 16 17 18 19 20 21 22 23 24 25 26 27 28 29 30 31 32 33 34 35 36 37 38 39 40 41 42 43 44 45 46 47 48 49 50

000
ASUS45 KBOU 251910
RWRCO

WEATHER ROUNDUP FOR COLORADO
NATIONAL WEATHER SERVICE PUEBLO CO
100 PM MDT WED APR 25 2018

NOTE: "FAIR" INDICATES FEW OR NO CLOUDS BELOW 12000 FEET WITH NO
SIGNIFICANT WEATHER AND/OR OBSTRUCTIONS TO VISIBILITY.

COZ001>005-013-030-031-252000-
...NORTHWEST COLORADO...

CITY           SKY/WX    TMP DP  RH WIND       PRES   REMARKS
CRAIG          SUNNY     54  25  32 VRB5      30.29F
HAYDEN         SUNNY     52  16  24 N6        30.30F
MEEKER         SUNNY     58  11  15 VRB3      30.27F
RABBIT EARS PA NOT AVBL
STEAMBOAT SPGS FAIR      52  15  22 W3        30.28F
WALDEN         FAIR      52   3  14 S7        30.31F
$$

COZ006>008-011-252000-
...WEST CENTRAL VALLEYS...

CITY           SKY/WX    TMP DP  RH WIND       PRES   REMARKS
GRAND JUNCTION SUNNY     61  14  16 VRB3      30.24F
MONTROSE       SUNNY     59  19  21 N8        30.26F
EAGLE          SUNNY     55   6  14 VRB3      30.30F
RIFLE          SUNNY     59  19  21 VRB5      30.25F
DELTA          NOT AVBL
NUCLA          FAIR      64   5   9 CALM      30.26F
$$

COZ017>023-064>068-252000-
...SOUTHWEST COLORADO...

CITY           SKY/WX    TMP DP  RH WIND       PRES   REMARKS
DURANGO        SUNNY     67  11  11 VRB7G18   30.22F
CORTEZ         SUNNY     69   4   7 SW15G23   30.22F
PAGOSA SPRINGS FAIR      64  -4   6 E6        30.27S
TELLURIDE      SUNNY     59  -1   8 W12G17    30.32F
WOLF CREEK PAS SUNNY     37  -6  15 CALM      30.50S
$$

COZ009-010-012-014-032>034-037-058>063-252000-
...CENTRAL COLORADO...

CITY           SKY/WX    TMP DP  RH WIND       PRES   REMARKS
ASPEN          SUNNY     57   6  13 N8G16     30.27F
BUENA VISTA    FAIR      54   3  12 CALM      30.30F
COPPER MTN     NOT AVBL
BERTHOUD PASS  FAIR      28  19  69 NW15G22   30.44S WCI  17
COTTONWOOD PAS SUNNY     54  10  17 E5        30.37F
GUNNISON       SUNNY     55   3  12 SE5       30.29F
KREMMLING      SUNNY     59  14  17 SE5       30.32F
LEADVILLE      SUNNY     47   4  17 VRB5      30.34F
MONARCH PASS   SUNNY     39  -2  17 CALM      30.54F
SALIDA         FAIR      56  11  16 NE3       30.37F
SUNLIGHT       SUNNY     41  10  28 CALM      30.45F
WILKERSON PASS SUNNY     36  10  35 CALM      30.44S
$$

COZ069>075-252000-
...SAN LUIS VALLEY/SANGRE DE CRISTO MOUNTAINS...

CITY           SKY/WX    TMP DP  RH WIND       PRES   REMARKS
ALAMOSA        SUNNY     57   2  11 N6        30.29F
DEL NORTE      FAIR      57  -2   9 S6        30.30F
LA VETA PASS   SUNNY     45  18  33 NW9G16    30.49F
SAGUACHE       NOT AVBL
$$

COZ035-036-038>040-252000-
...NORTHERN COLORADO FRONT RANGE...

CITY           SKY/WX    TMP DP  RH WIND       PRES   REMARKS
DENVER INTL AP SUNNY     54  25  32 S5        30.23F
DMNS CITY PARK NOT AVBL
AURORA         SUNNY     55  20  25 CALM      30.24F
FRONT RANGE AP SUNNY     55  25  30 W5        30.24F
ERIE MUNI ARPT FAIR      56  24  28 SE6       30.27F
BOULDER MUN AP FAIR      57  27  30 SE6       30.21F
CENTENNIAL     SUNNY     54  23  30 CALM      30.24F
BROOMFIELD     SUNNY     55  25  30 SE7       30.23F
LOVELAND       SUNNY     56  31  38 S10       30.22F
LONGMONT       FAIR      60  31  34 E5        30.23F
$$

COZ041-046-047-076>085-087-088-252000-
...PIKES PEAK/PALMER DIVIDE AND SOUTHERN FOOTHILLS...

CITY           SKY/WX    TMP DP  RH WIND       PRES   REMARKS
COLO. SPRINGS  SUNNY     53  29  39 W6        30.27F
A. F. ACADEMY  SUNNY     54  28  36 S8        30.25F
SCHRIEVER AFB  NOT AVBL
CHEYENNE MTN   NOT AVBL
ELLICOTT         N/A    N/A N/A N/A CALM      30.26F
FALCON         FAIR      55  27  34 CALM      30.28F
FORT CARSON    SUNNY     53  28  37 SE8       30.25F
LIMON          SUNNY     52  25  35 W7        30.24F
MONUMENT HILL  SUNNY     50  21  32 W9        30.29F
CANON CITY     FAIR      59  34  38 SW3       30.24F
WALSENBURG     FAIR      55  37  50 E5        30.27F
TRINIDAD       SUNNY     54  25  32 VRB3      30.27F
$$

COZ042>045-048>051-090-091-252000-
...NORTHEAST COLORADO...

CITY           SKY/WX    TMP DP  RH WIND       PRES   REMARKS
GREELEY ARPT   SUNNY     57  30  35 S9        30.23F
AKRON          SUNNY     53  29  39 NW9       30.22F
BURLINGTON     SUNNY     52  29  41 NW7G18    30.24F
WRAY           FAIR      55  28  35 W7        30.23F
YUMA           NOT AVBL
STERLING       NOT AVBL
HOLYOKE        FAIR      59  30  33 W7        30.22F
FORT MORGAN    FAIR      57  22  26 W9        30.23F
$$

COZ086-089-092>099-252000-
...SOUTHEAST COLORADO...

CITY           SKY/WX    TMP DP  RH WIND       PRES   REMARKS
PUEBLO         SUNNY     55  31  39 CALM      30.24F
LA JUNTA       MOSUNNY   53  35  50 MISG      30.26F
LAMAR          MOSUNNY   57  32  38 N13G23    30.24F
SPRINGFIELD      N/A     53  30  41 NW15G24   30.26F
$$




USA.gov is the U.S. government's official web portal to all federal, state and local government web resources and services.